Back to catalog

HAIYANG 2D

AliveScienceLEO
NORAD 48621·PAYLOAD·🇨🇳 China

Launched May 19, 2021 from Jiuquan Satellite Launch Center

Loading…

Next Passes (next 24 hours)

TLE

FreshSource: CelesTrak SupGP

Epoch: Sep 14, 2026, 00:00 UTC

1 48621C 21043A   26257.00000000  .00000028  00000+0  25458-4 0  2577
2 48621  65.9971  83.5827 0010719 261.3788 107.5885 13.83374503    18

Track HAIYANG 2D in real time with AllMySat

Download on the App Store